Weather History for KMTJ - May, 2014

Change the Weather History Date:

Friday, May 16, 2014

  Actual Average Record
Temperature  
Mean Temperature 60 °F 58 °F  
Max Temperature 78 °F 74 °F 84 °F (2013)
Min Temperature 41 °F 43 °F 36 °F (1998)
Degree Days  
Heating Degree Days 5 7  
Month to date heating degree days 188 150  
Since 1 July heating degree days 6084 6088  
Cooling Degree Days 0 0  
Month to date cooling degree days 2 0  
Year to date cooling degree days 2 0  
Growing Degree Days 10 (Base 50)    
Moisture  
Dew Point 30 °F    
Average Humidity 39    
Maximum Humidity 62    
Minimum Humidity 15    
Precipitation  
Precipitation 0.00 in 0.04 in 0.06 in (2015)
Month to date precipitation 0.35 0.72  
Year to date precipitation 2.48 3.94  
Sea Level Pressure  
Sea Level Pressure 29.99 in    
Wind  
Wind Speed 7 mph (NNW)    
Max Wind Speed 29 mph    
Max Gust Speed 40 mph    
Visibility 10 miles    
Events      
T = Trace of Precipitation, MM = Missing Value Source: NWS Daily Summary

Daily Weather History Graph

Daily Weather History Graph

Search for Another Location

Airport or City:

Trip Planner

Search our weather history database for the weather conditions in past years. The results will help you decide how hot, cold, wet, or windy it might be!

Date:

Astronomy

May. 16, 2014 Rise Set
Actual Time 5:59 AM MDT 8:17 PM MDT
Civil Twilight 5:29 AM MDT 8:47 PM MDT
Nautical Twilight 4:52 AM MDT 9:24 PM MDT
Astronomical Twilight 4:12 AM MDT 10:04 PM MDT
Moon 10:27 PM MDT (5/16) 7:43 AM MDT (5/16)
Length of Visible Light 15h 18m
Length of Day
14h 18m
Waning Gibbous, 95% of the Moon is Illuminated
May 16
Waning Gibbous
May 21
Last Quarter
May 28
New
Jun 5
First Quarter
Jun 12
Full

Hourly Weather History & Observations

Time (MDT) Temp. Windchill Dew Point Humidity Pressure Visibility Wind Dir Wind Speed Gust Speed Precip Events Conditions
12:53 AM 51.1 °F - 30.0 °F 44% 30.08 in 10.0 mi SE 10.4 mph - N/A   Clear
2:53 AM 46.0 °F 43.1 °F 30.9 °F 56% 30.08 in 10.0 mi SSE 5.8 mph - N/A   Clear
3:53 AM 44.1 °F 40.1 °F 32.0 °F 63% 30.07 in 10.0 mi SSE 6.9 mph - N/A   Clear
4:53 AM 44.1 °F 39.5 °F 30.9 °F 60% 30.05 in 10.0 mi SE 8.1 mph - N/A   Clear
5:53 AM 42.1 °F 37.7 °F 30.9 °F 65% 30.06 in 10.0 mi SE 6.9 mph - N/A   Clear
6:53 AM 44.1 °F 41.5 °F 32.0 °F 63% 30.07 in 10.0 mi South 4.6 mph - N/A   Clear
7:53 AM 52.0 °F - 32.0 °F 47% 30.05 in 10.0 mi SSW 3.5 mph - N/A   Clear
8:53 AM 55.9 °F - 32.0 °F 40% 30.06 in 10.0 mi NW 6.9 mph - N/A   Clear
9:53 AM 59.0 °F - 36.0 °F 42% 30.05 in 10.0 mi Calm Calm - N/A   Partly Cloudy
10:53 AM 66.0 °F - 28.9 °F 25% 30.01 in 10.0 mi SE 4.6 mph - N/A   Clear
11:53 AM 71.1 °F - 27.0 °F 19% 29.97 in 10.0 mi Variable 3.5 mph - N/A   Clear
12:53 PM 73.9 °F - 25.0 °F 16% 29.94 in 10.0 mi North 11.5 mph - N/A   Clear
2:53 PM 77.0 °F - 26.1 °F 15% 29.91 in 10.0 mi NNW 9.2 mph 18.4 mph N/A   Clear
3:12 PM 75.0 °F - 28.0 °F 18% 30.10 in 2.5 mi NNW 26.5 mph 39.1 mph N/A   Haze
3:26 PM 73.9 °F - 28.0 °F 18% 30.11 in 10.0 mi NW 19.6 mph 32.2 mph N/A   Scattered Clouds
3:53 PM 75.0 °F - 28.0 °F 18% 29.91 in 10.0 mi North 9.2 mph - N/A   Clear
4:53 PM 73.9 °F - 27.0 °F 18% 29.91 in 10.0 mi North 4.6 mph - N/A   Clear
5:53 PM 73.9 °F - 27.0 °F 18% 29.90 in 10.0 mi North 6.9 mph - N/A   Clear
6:53 PM 72.0 °F - 30.9 °F 22% 29.90 in 10.0 mi NW 12.7 mph - N/A   Partly Cloudy
7:53 PM 69.1 °F - 32.0 °F 25% 29.89 in 10.0 mi ENE 3.5 mph - N/A   Mostly Cloudy
9:53 PM 64.9 °F - 37.0 °F 36% 29.92 in 10.0 mi NW 3.5 mph - N/A   Mostly Cloudy
10:53 PM 70.0 °F - 27.0 °F 20% 29.87 in 10.0 mi WNW 17.3 mph 28.8 mph N/A   Overcast
11:53 PM 64.0 °F - 34.0 °F 33% 29.86 in 10.0 mi Calm Calm - N/A   Clear